[Iaude] MPEC N49: 2024 MM2 [a=1.51,e=0.31,i=8.5,H=24.1]
    mpec at cfa.harvard.edu 
    mpec at cfa.harvard.edu
       
    Fri Jul  5 10:25:08 EDT 2024
    
    
  
M.P.E.C. 2024-N49                                  Issued 2024 July 5, 14:23 UT
     The Minor Planet Electronic Circulars contain information on unusual
         minor planets, routine data on comets and natural satellites,
         and occasional editorial announcements.  They are published
    on behalf of Division F of the International Astronomical Union by the
          Minor Planet Center, Smithsonian Astrophysical Observatory,
                          Cambridge, MA 02138, U.S.A.
			  
             Prepared using the Tamkin Foundation Computer Network
                              MPC at CFA.HARVARD.EDU
            URL https://www.minorplanetcenter.net/    ISSN 1523-6714
                                    2024 MM2                                    
Observations:
     K24M02M* C2024 06 30.51532121 20 36.588-34 24 28.54         21.47wXEN049F51
     K24M02M  C2024 06 30.52502421 20 36.609-34 24 58.69         20.98wXEN049F51
     K24M02M  C2024 06 30.53475621 20 36.644-34 25 28.07         21.51wXEN049F51
     K24M02M  C2024 06 30.54446521 20 36.650-34 25 57.21         21.18wXEN049F51
     K24M02M  C2024 07 01.18150421 21 00.74 -34 56 24.3                WEN049X09
     K24M02M  C2024 07 01.20250921 21 01.00 -34 57 28.3                WEN049X09
     K24M02M |C2024 07 02.32067021 21 27.550-35 50 26.50         20.8 GVEN049807
     K24M02M |C2024 07 02.32632521 21 27.520-35 50 42.20         21.0 GVEN049807
     K24M02M |C2024 07 02.33168021 21 27.470-35 50 56.80         21.2 GVEN049807
     K24M02M 3C2024 07 05.55475721 22 09.747-38 07 55.39         21.20GVEN049T14
     K24M02M 3C2024 07 05.55573421 22 09.723-38 07 57.62         21.31GVEN049T14
     K24M02M 3C2024 07 05.55671221 22 09.695-38 07 59.87         21.30GVEN049T14
Observer details:
807 Cerro Tololo Observatory, La Serena.  Observers T. Linder, R. Holmes.
    0.61-m f/6.8 Ritchey-Chretien + CCD.
F51 Pan-STARRS 1, Haleakala.  Observers J. Herman, T. Lowe, P. Minguez, A.
    Schultz, I. Smith.  Measurers K. Chambers, T. de Boer, J. Fairlamb, H.
    Gao, M. Huber, C.-C. Lin, E. Magnier, Y. Ramanjooloo, R. Wainscoat, R.
    Weryk.  1.8-m Ritchey-Chretien + CCD.
T14 Canada-France-Hawaii Telescope, Maunakea.  Observers R. Wainscoat, H.
    Januszewski, H. Flewelling.  Measurers R. Weryk, R. Wainscoat.  3.6-m
    f/4.1 reflector + CCD.
X09 Deep Random Survey, Rio Hurtado.  Observers A. Schnabel, D. Ruhela.
    Measurer S. Deen.  0.43-m reflector + CMOS.
Orbital elements:
2024 MM2                                                 Earth MOID = 0.0516 AU
Epoch 2024 Mar. 31.0 TT = JDT 2460400.5                 MPC                     
M 335.53607              (2000.0)            P               Q                  
n   0.53282712     Peri.  147.60814     -0.54803202     +0.82325727             
a   1.5068794      Node    88.75453     -0.79552525     -0.45831144             
e   0.3094236      Incl.    8.51393     -0.25845790     -0.33495985             
P   1.85           H   24.12          G   0.15           U   8                  
Residuals in seconds of arc
240630 F51  0.0   0.3+    240701 X09  0.9-  0.4+    240702 807  0.1-  0.2-
240630 F51  0.1-  0.2-    240701 X09  0.1+  0.7+    240705 T14  0.0   0.0
240630 F51  0.1+  0.0     240702 807  0.0   0.1+    240705 T14  0.0   0.0
240630 F51  0.1-  0.2+    240702 807  0.1+  0.2-    240705 T14  0.0   0.0
Ephemeris:
2024 MM2                 a,e,i = 1.51, 0.31, 9                   q = 1.0406
Date    TT    R. A. (2000) Decl.     Delta      r    Elong.  Phase     V
2024 06 05    20 21 36.1 +04 41 42   0.07650 1.0574   122.2    54.3    20.6
...
2024 06 20    21 07 37.2 -22 56 27   0.09980 1.0901   135.9    40.4    20.9
...
2024 06 28    21 18 45.0 -32 08 56   0.1206  1.1134   141.5    34.7    21.2
...
2024 07 04    21 21 57.9 -37 04 11   0.1387  1.1332   145.0    30.9    21.4
2024 07 05    21 22 07.5 -37 45 12   0.1420  1.1367   145.6    30.4    21.5
2024 07 06    21 22 11.4 -38 24 05   0.1453  1.1402   146.1    29.8    21.5
...
2024 07 12    21 20 49.7 -41 36 17   0.1663  1.1622   148.9    26.9    21.8
...
2024 07 20    21 15 40.6 -44 18 28   0.1978  1.1935   151.4    24.0    22.1
...
2024 08 04    21 02 50.7 -45 48 09   0.2686  1.2570   151.4    22.7    22.8
A. U. Tomatic                (C) Copyright 2024 MPC           M.P.E.C. 2024-N49
    
    
More information about the Iaude
mailing list